www.pogodaiklimat.ru

Погода и климат >> Архив погоды >> Антарктида >> Neumayer Station


ПОГОДА на Neumayer Station

  • Прогноз погоды на Neumayer Station
  • Монитор погоды на Neumayer Station

АРХИВ ПОГОДЫ на Neumayer Station

Время (UTC), дата Ветер
(напр.,м/с)
 
Видим.   Явления Облачность Т
(С)
Тd
(С)
f
(%)
Тe
(С)
Тes
(С)
Комфортность P
(гПа)
Po
(гПа)
Тmin
(С)
Tmax
(С)
R
(мм)
R24
(мм)
S
(см)
06 12.09 В 22 <50 м сильная метель ?/? -24.4 -27.7 74 -44 -44 опасность
обморожения
981.1 975.1
09 12.09 В 27 <50 м сильная метель ?/? -22.9 -26.2 74 -44 -44 опасность
обморожения
975.5 969.6
12 12.09 В 26 <50 м сильная метель ?/? -21.8 -25.0 75 -42 -42 опасность
обморожения
973.8 967.9 -25.8 -21.7
15 12.09 В 21 <50 м сильная метель ?/? -20.2 -23.2 77 -38 -38 опасность
обморожения
973.8 967.9
18 12.09 В 20 <50 м сильная метель ?/? -20.5 -23.5 77 -38 -38 опасность
обморожения
976.1 970.2
21 12.09 В 16 <50 м сильная метель ?/? -19.2 -22.1 78 -35 -35 опасность
обморожения
976.8 970.9
00 13.09 В 17 <50 м сильная метель ?/? -19.0 -21.8 78 -35 -35 опасность
обморожения
976.2 970.4 -21.6 -18.6
03 13.09 В 17 н/о н/о -18.9 -21.8 78 -35 -35 опасность
обморожения
974.8 969.0
06 13.09 В 13 <50 м сильная метель ?/? -18.5 -21.5 77 -33 -33 опасность
обморожения
974.9 969.0
09 13.09 СВ 5 10 км {метель} 10/10 300 м
[St]
-17.4 -20.3 78 -27 -27 976.1 970.3
12 13.09 СЗ 7 10 км {метель} 10/10 300 м
[St]
-17.3 -20.4 77 -28 -28 979.0 973.1 -19.3 -16.0
15 13.09 СЗ 4 10 км снежные кристаллы 10/10 300 м
[St]
-18.4 -22.7 69 -27 -27 979.9 974.1
18 13.09 СВ 5 10 км слаб. снег 10/10 200 м
[Frnb]
-19.4 -22.7 75 -29 -29 979.4 973.5
21 13.09 С 3 10 км снежные кристаллы {метель} 10/10 1000 м
[Frnb]
-21.1 -23.9 78 -29 -29 979.9 974.0
00 14.09 С 4 4000 м слаб. снег 9/9 200 м
[Frnb]
-21.5 -24.6 76 -30 -30 980.0 974.0 -22.0 -17.5
03 14.09 СЗ 7 н/о н/о -18.7 -21.5 79 -30 -30 979.9 974.1
06 14.09 З 6 н/о н/о -19.6 -23.5 71 -30 -30 981.2 975.3
09 14.09 СЗ 5 2000 м снег туман 10/10
[Frnb]
-19.7 -22.9 76 -29 -29 982.5 976.6
12 14.09 СЗ 5 10 км снежные кристаллы туман 10/10 300 м
[Frnb]
-18.8 -23.3 68 -29 -29 982.9 977.0 -23.5 -18.3
15 14.09 В 7 20 км позёмок {снег} 10/10 300 м
[St]
-19.0 -22.6 73 -31 -31 опасность
обморожения
980.7 974.9
18 14.09 В 13 50 м сильная метель ?/? -19.5 -22.4 78 -35 -35 опасность
обморожения
976.4 970.6
21 14.09 В 20 <50 м сильная метель ?/? -19.7 -22.6 78 -37 -37 опасность
обморожения
969.9 964.1
00 15.09 В 24 <50 м сильная метель ?/? -20.6 -23.6 77 -40 -40 опасность
обморожения
964.9 959.1 -21.1 -18.0
03 15.09 В 20 н/о н/о -19.8 -22.7 78 -37 -37 опасность
обморожения
962.6 956.8
06 15.09 В 13 50 м сильная метель ?/? -18.2 -21.0 79 -33 -33 опасность
обморожения
964.5 958.7
09 15.09 З 9 500 м слаб. снег {метель} туман 10/10 600 м
[Sc]
-18.4 -21.1 79 -31 -31 опасность
обморожения
968.0 962.2
12 15.09 З 15 <50 м сильная метель 4/0
[Ac trans]
-21.2 -24.0 78 -38 -38 опасность
обморожения
972.8 966.9 -21.4 -16.9
15 15.09 З 10 1000 м ледяные иглы {метель} туман 3/3 1000 м
[Sc]
-23.2 -26.3 76 -38 -38 опасность
обморожения
977.9 971.9
18 15.09 З 7 10 км позёмок 9/3 300 м
[Sc Ac trans Ci fib]
-23.8 -27.2 73 -37 -37 опасность
обморожения
980.8 974.8
21 15.09 ЮЗ 2 10 км снежные кристаллы 10/10 600 м
[Sc]
-23.8 -27.7 70 -29 -29 982.5 976.5
00 16.09 В 3 4000 м слаб. снег 10/9
[Frnb]
-26.0 -29.2 74 -34 -34 опасность
обморожения
983.6 977.5 -26.0 -21.4
03 16.09 В 2 н/о н/о -24.9 -28.1 75 -30 -30 984.6 978.5
06 16.09 СВ 3 10 км {снег} 10/10 300 м
[Frnb]
-24.3 -27.6 74 -32 -32 опасность
обморожения
985.4 979.3
09 16.09 В 6 10 км 9/3 300 м
[St As op Cc]
-25.5 -29.1 72 -38 -37 опасность
обморожения
985.8 979.7
12 16.09 В 7 2000 м снег туман 10/9
[Frnb]
-21.7 -25.1 74 -34 -34 опасность
обморожения
985.8 979.8 -28.7 -21.7
15 16.09 В 9 2000 м сильный позёмок туман 9/4
[Frnb Ac trans]
-22.3 -25.6 74 -36 -36 опасность
обморожения
985.7 979.7
18 16.09 ЮВ 6 10 км {снег, метель} 9/6 200 м
[St Ac trans]
-24.6 -28.3 71 -36 -36 опасность
обморожения
986.6 980.5
21 16.09 Ю 5 20 км 3/3 1000 м
[Sc]
-32.0 -35.8 69 -45 -45 опасность
обморожения
987.4 981.1
00 17.09 Ю 5 20 км 5/4 600 м
[St Ac trans]
-34.0 -38.1 66 -47 -47 опасность
обморожения
987.2 980.9 -34.1 -21.7
03 17.09 ЮЗ 3 н/о н/о -36.8 -41.1 64 -47 -47 опасность
обморожения
986.2 979.8
06 17.09 Ю 6 20 км 9/0
[Ci fib]
-37.1 -41.4 64 -53 -53 опасность
обморожения
984.4 978.0
09 17.09 ЮЗ 7 20 км ясно -35.3 -40.0 62 -51 -51 опасность
обморожения
983.1 976.8
12 17.09 ЮЗ 5 20 км ясно -33.3 -38.1 62 -47 -46 опасность
обморожения
982.1 975.8 -38.0 -33.1
15 17.09 З 4 20 км ясно -32.7 -36.7 67 -45 -44 опасность
обморожения
981.2 974.9
18 17.09 З 9 10 км туман на расстоянии туман 1/0
[Ac trans]
-31.3 -35.8 64 -48 -48 опасность
обморожения
978.9 972.8
21 17.09 З 9 20 км позёмок ясно -33.8 -38.0 66 -51 -51 опасность
обморожения
978.7 972.5
00 18.09 ЮЗ 7 20 км ясно -36.1 -40.1 66 -52 -52 опасность
обморожения
978.1 971.8 -36.4 -30.9
03 18.09 З 5 н/о н/о -37.0 -41.2 65 -51 -51 опасность
обморожения
977.8 971.5
06 18.09 З 7 2000 м туман на расстоянии туман ясно -37.3 -41.5 65 -54 -54 опасность
обморожения
976.6 970.3
09 18.09 З 7 4000 м туман на расстоянии туман ясно -37.4 -41.5 65 -54 -53 опасность
обморожения
976.5 970.2
12 18.09 З 6 20 км позёмок 1/0
[Ac lent]
-35.4 -39.8 64 -51 -50 опасность
обморожения
976.1 969.9 -38.9 -34.7
15 18.09 ЮЗ 7 20 км позёмок 1/0
[Ci sp]
-33.1 -37.7 63 -48 -48 опасность
обморожения
975.2 969.0
18 18.09 ЮЗ 7 20 км позёмок 1/0
[Ci sp]
-33.4 -37.7 65 -49 -49 опасность
обморожения
974.3 968.1
21 18.09 ЮЗ 7 20 км позёмок ясно -36.9 -41.1 65 -53 -53 опасность
обморожения
974.0 967.7
00 19.09 ЮЗ 3 20 км ясно -37.9 -42.0 65 -49 -49 опасность
обморожения
975.0 968.7 -38.2 -30.9
03 19.09 Ю 2 н/о н/о -36.0 -39.8 68 -45 -45 опасность
обморожения
976.8 970.5

 

Местоположение метеостанции Neumayer Station (Антарктида): широта -70.66 долгота -8.25 высота над уровнем моря 50 м.

В архиве по умолчанию представлена погода на Neumayer Station за последнюю неделю. Архивные данные за месяц целиком и за предыдущие месяцы, начиная с января 2011 года, Вы можете получить, выбрав интересующий диапазон дат из раскрывающегося списка и нажав кнопку "Ввод!".


*Определитесь, кто Вы:
робот инопланетянин человек

Внимание! Время в таблицах - всемирное. Для получения местного времени необходимо прибавить поправку, которая равна 0 ч.

Смотрите также архив погоды в соседних городах и на ближайших метеорологических станциях:

Погода на Soerasen (Антарктида) (102 км)
Погода на SANAE (Антарктида) (227 км)
Погода на Nordenskiold Base (Антарктида) (320 км)
Погода на Troll (Антарктида) (406 км)
Погода на Kohnen Ep9 (Антарктида) (552 км)
Погода на Maitri (Антарктида) (732 км)
Погода на Новолазаревской (Антарктида) (734 км)
Погода на Halley (Антарктида) (797 км)
Погода на Бельграно II (Антарктида) (1110 км)
Погода на Лимберте (Антарктида) (1666 км)

Пояснения к столбцам:

Ветер - указаны скорость ветра в м/с - средняя за 10 мин, порывы в срок и между сроками (в фигурных скобках) и направление, откуда дует ветер: С - северный, СВ - северо-восточный, В - восточный, ЮВ - юго-восточный, Ю - южный, ЮЗ - юго-западный, З - западный, СЗ - северо-западный.
Видимость - горизонтальная дальность видимости в метрах или километрах. При видимости от 1 до 10 км при отсутствии осадков обычно наблюдается дымка, при ухудшении видимости до 1 км и менее - туман. В сухую погоду видимость может ухудшаться дымом, пылью или мглою.
Явления - указаны атмосферные явления, наблюдавшиеся в срок или в последний час перед сроком; фигурными скобками обозначены явления, наблюдавшиеся между сроками (за 1-3 часа до срока); квадратными скобками обозначены град или гололедные отложения с указанием их диаметра в мм.
Облачность - указаны через наклонную черту общая и нижняя облачность в баллах и высота нижней границы облаков в метрах; квадратными скобками обозначены формы облаков: Ci - перистые, Cs - перисто-слоистые, Cc - перисто-кучевые, Ac - высококучевые, As - высокослоистые, Sc - слоисто-кучевые, Ns - слоисто-дождевые, Cu - кучевые, Cb - кучево-дождевые. Подробнее классификацию облаков см. в Атласе облаков (PDF).
T - Температура воздуха - температура, измеренная на высоте 2 м над землей.
Td - Температура точки росы - температура, при понижении до которой содержащийся в воздухе водяной пар достигнет насыщения.
f - Относительная влажность воздуха - влажноcть воздуха, измеренная на высоте 2 м над землей.
Te - Эффективная температура - температура, которую ощущает одетый по сезону человек в тени. Характеристика душности погоды. При расчете учитывается влияние влажности воздуха и скорости ветра на теплоощущения человека.
Tes - Эффективная температура на солнце - температура, которую ощущает человек, с поправкой на солнечный нагрев. Характеристика знойности погоды. Зависит от высоты солнца над горизонтом, облачности и скорости ветра. Ночью, в пасмурную погоду, а также при ветре 12 м/с и более поправка равна нулю.
P - Атмосферное давление - приведенное к уровню моря атмосферное давление.
Po - Атмосферное давление - измеренное на уровне метеостанции атмосферное давление.
Tmin - Минимальная температура - минимум температуры воздуха на высоте 2 м над землей.
Tmax - Максимальная температура - максимум температуры воздуха на высоте 2 м над землей.
R - Количество осадков - Количество выпавших осадков за период времени, мм. При наведении курсора мыши на число - период времени, за который выпало указанное количество осадков.
R24 - Количество осадков - Количество выпавших осадков за 24 часа, мм.
S - Снежный покров - Высота снежного покрова, см. При наведении курсора мыши на число - состояние снежного покрова и степень покрытия местности в баллах.